Location: Acheux
(50.0723°N, 2.5329°E)
Time: 10:49:13
(UTC+00:00)

Daily predictions for brighter satellites

Satellite Brightness Start Highest point End
(mag) Time Altitude Azimuth Time Altitude Azimuth Time Altitude Azimuth
ATLAS 2AS CENTAUR R/B 3.8 16:25:55 10° NW 16:31:36 27° N 16:37:13 10° ENE
Cosmos 1844 Rocket 3.9 16:29:03 10° WSW 16:34:14 38° NW 16:39:28 10° NNE
UNK 4.4 16:30:34 10° NNE 16:34:50 36° E 16:39:05 10° SSE
DNEPR-1 R/B 4.4 16:31:37 10° NW 16:36:01 61° SW 16:41:04 10° SSE
Cosmos 1459 Rocket 4.2 16:29:42 10° S 16:36:01 82° W 16:42:26 10° N
YAOGAN 1 4.3 16:34:35 10° E 16:36:23 13° NE 16:38:13 10° NNE
COSMOS 2406 4.4 16:36:32 10° NNW 16:40:54 22° NE 16:45:15 10° E
Cosmos 2084 Rocket 3.4 16:37:24 10° SW 16:41:35 78° SE 16:45:48 10° NE
Cosmos 2100 Rocket 4.4 16:37:35 10° SSW 16:43:43 67° WNW 16:49:51 10° N
ATLAS CENTAUR R/B 2.4 16:41:00 10° WSW 16:44:06 30° NW 16:47:13 10° NNE
Cosmos 1441 Rocket 3.3 16:42:21 10° NNW 16:45:41 67° W 16:49:00 10° S
Cosmos 2221 Rocket 4.4 16:41:53 10° NNW 16:46:18 56° W 16:50:38 10° S
Cosmos 1833 Rocket 3.0 16:40:49 10° NNW 16:46:29 77° WSW 16:52:07 10° SSE
SAR-Lupe-4 3.9 16:43:14 10° SE 16:46:38 43° ENE 16:50:04 10° N
ARIANE 5 R/B 2.6 16:42:32 10° SE 16:47:19 50° ENE 16:52:09 10° N
Timation 1 Rocket 4.4 16:48:58 10° NNW 16:54:52 57° NE 17:00:43 10° SE
USA 215 3.4 16:48:19 10° SE 16:54:52 81° SSW 17:01:28 10° WNW
IRS-P3 4.4 16:53:02 10° SE 16:58:06 47° ENE 17:03:13 10° N
MOS 1 Rocket 3.7 16:56:20 10° SE 17:00:14 34° ENE 17:04:20 10° N
ATLAS 5 CENTAUR R/B 2.5 16:56:00 10° NW 17:00:15 57° SW 17:05:31 10° SSE
Cosmos 1484 Rocket 4.1 17:00:56 10° S 17:04:15 39° W 17:07:36 10° NNW
Iridium 4 Rocket 4.3 17:01:34 10° SSW 17:06:28 51° W 17:10:58 10° N
Resurs 01 Rocket 3.5 17:08:58 12° NE 17:08:58 12° NE 17:10:01 10° NNE
Cosmos 2233 Rocket 4.0 17:02:29 10° S 17:08:48 85° E 17:15:11 10° N
RESURS DK-1 2.2 17:05:03 10° NNW 17:09:03 65° ENE 17:13:01 10° SE
Cosmos 1602 4.2 17:06:45 10° NNE 17:09:20 24° ENE 17:11:54 10° SE
Cosmos 407 Rocket 3.8 17:04:53 10° S 17:09:49 46° ESE 17:14:43 10° NE
Cosmos 1725 Rocket 4.4 17:03:35 10° SSW 17:09:50 69° WNW 17:16:10 10° N
Cosmos 2061 Rocket 4.0 17:05:02 10° S 17:11:19 81° E 17:17:34 10° NNE
ISS -2.9 17:12:06 10° SW 17:15:14 37° SSE 17:17:12 19° E
Geosat FO 4.4 17:12:36 10° SE 17:15:19 41° NE 17:18:04 10° NNW
Cosmos 1782 Rocket 3.7 17:11:08 10° SSW 17:15:34 78° W 17:20:01 10° N
CZ-2D R/B 2.6 17:13:19 10° SSE 17:16:28 79° ENE 17:19:38 10° N
Cosmos 1869 3.2 17:13:55 10° S 17:17:19 48° E 17:20:43 10° NNE
ERS-1 4.4 17:13:21 10° SSE 17:18:29 77° ENE 17:23:35 10° NNW
USA 281 4.3 17:15:06 14° E 17:18:55 24° NE 17:23:55 10° N
SPOT 1/Viking Rocket 3.9 17:14:26 10° SE 17:19:17 42° ENE 17:24:11 10° N
Cosmos 1300 Rocket 4.0 17:15:25 10° SSW 17:19:46 64° WNW 17:24:08 10° N
COSMO-SKYMED 1 3.7 17:21:26 19° ENE 17:22:25 21° E 17:25:33 10° SE
SJ-12 3.7 17:19:29 10° SSE 17:23:17 90° WSW 17:27:06 10° NNW
Cosmos 1464 Rocket 4.5 17:19:09 10° SSE 17:24:50 37° E 17:30:29 10° NNE
AQUARIUS 4.0 17:22:41 10° SSE 17:27:05 80° ENE 17:31:31 10° NNW
SL-12 R/B(2) 4.4 17:19:52 10° SSW 17:27:42 65° ESE 17:36:59 11° NE
Cosmos 540 Rocket 3.4 17:23:55 10° NNW 17:29:05 86° ENE 17:34:12 10° SSE
BREEZE-M DEB (TANK) 2.6 17:27:06 10° SW 17:29:31 49° SSE 17:32:21 21° E
Cosmos 1400 Rocket 3.8 17:28:18 10° SE 17:31:12 23° E 17:31:12 23° E
Cosmos 1975 Rocket 3.6 17:28:07 10° NNW 17:32:24 60° W 17:36:42 10° S
Spot 4 Rocket 4.2 17:28:13 10° SE 17:33:04 47° ENE 17:37:58 10° N
Cosmos 1763 Rocket 3.7 17:29:20 10° NNW 17:34:33 75° WSW 17:39:40 10° SSE
Cosmos 1812 2.1 17:33:52 10° S 17:36:41 48° E 17:37:34 34° NE
Cosmos 1140 Rocket 4.1 17:36:38 10° SW 17:41:44 57° WNW 17:46:49 10° NNE
Cosmos 2151 Rocket 4.0 17:37:45 10° SSE 17:41:57 40° E 17:45:29 14° NNE
Cosmos 2058 2.7 17:38:31 10° N 17:42:29 65° ENE 17:46:26 10° SSE
SMAP 4.3 17:38:47 10° S 17:43:14 45° W 17:47:44 10° NNW
Cosmos 44 Rocket 3.4 17:39:51 10° SSW 17:44:30 56° ESE 17:47:06 26° NE
SKYMED 2 3.6 17:45:23 12° NNE 17:49:16 53° E 17:53:30 10° S
Cosmos 1943 Rocket 2.1 17:43:56 10° SSW 17:49:33 78° ESE 17:54:09 16° NNE
Helios 1A Rocket 3.6 17:51:57 27° SE 17:51:57 27° SE 17:53:58 10° SSE
Okean 1 Rocket 3.7 17:47:56 10° SSE 17:51:43 33° E 17:51:43 33° E
CZ-2D R/B 3.3 17:47:59 10° SSE 17:52:06 73° ENE 17:56:20 10° N
SJ-7 4.1 17:48:30 10° SSE 17:52:07 55° ENE 17:55:45 10° N
IRAS Rocket 4.1 17:47:04 10° SSE 17:52:35 68° ENE 17:58:05 10° NNW
Sich 1 Rocket 4.2 17:48:47 10° SSE 17:52:54 35° E 17:53:29 34° ENE
Cosmos 2082 Rocket 2.1 17:47:36 10° NNW 17:53:15 85° ENE 17:58:52 10° SSE
PSLV R/B 3.4 17:49:46 10° SSE 17:53:42 54° ENE 17:57:39 10° N
Cosmos 2026 Rocket 4.3 17:51:51 10° N 17:57:35 41° ENE 18:03:19 10° SE
Cosmos 1072 Rocket 4.4 17:51:49 10° S 17:57:54 68° E 18:03:59 10° NNE
Cosmos 2278 Rocket 2.1 17:52:40 10° SSW 17:58:20 85° ESE 18:02:47 17° NNE
NOAA 6 4.1 17:55:29 10° SE 18:00:28 53° ENE 18:05:28 10° N
BREEZE-M DEB (TANK) 3.4 17:58:27 10° SW 18:01:16 54° SSE 18:03:16 33° E
Aureole 3 Rocket 2.3 17:58:21 10° SSW 18:01:23 73° WNW 18:03:12 23° N
BREEZE-M DEB (TANK) 2.9 17:59:34 10° WSW 18:02:10 79° SSE 18:04:09 35° ENE
SL-16 R/B 4.2 17:59:49 10° N 18:05:16 32° WNW 18:10:42 10° WSW
Geosat 4.0 18:04:10 31° ESE 18:06:21 56° NE 18:11:15 10° NNW
Cosmos 2251 Rocket 3.4 18:03:52 10° SSW 18:09:09 79° ESE 18:12:38 22° NNE
YAOGAN 1 2.4 18:07:18 10° SSE 18:11:34 85° ENE 18:15:51 10° NNW
Cosmos 371 Rocket 3.4 18:08:10 10° S 18:12:46 47° ESE 18:12:52 47° ESE
Cosmos 304 Rocket 3.8 18:09:17 10° S 18:13:49 49° ESE 18:13:57 49° ESE
Cosmos 841 Rocket 3.4 18:09:02 10° NNW 18:14:18 70° ENE 18:17:15 26° SE
SJ 16-02 1.2 18:11:07 10° S 18:15:23 64° ESE 18:15:42 61° E
SL-19 R/B 4.0 18:10:35 10° SSE 18:15:48 89° ENE 18:21:05 10° NNW
Nadezhda 4 Rocket 4.0 18:13:25 10° N 18:19:45 86° W 18:25:59 10° S
CZ-4C R/B 3.8 18:15:40 10° WNW 18:19:57 24° N 18:22:35 19° NNE
Cosmos 1862 3.5 18:18:33 10° NNW 18:22:08 60° W 18:25:43 10° S
Resurs 1-3 3.6 18:19:15 10° S 18:23:33 79° WSW 18:27:52 10° NNW
ATLAS 2AS CENTAUR R/B 2.9 18:17:32 10° NW 18:24:07 48° NE 18:25:35 41° ENE
COSMOS 2406 3.1 18:20:19 10° NNW 18:26:02 85° ENE 18:29:07 29° SSE
Cosmos 1627 Rocket 4.3 18:22:06 10° N 18:28:13 64° ENE 18:34:19 10° SSE
Cosmos 1656 Rocket 4.2 18:24:19 10° S 18:28:32 40° SE 18:28:32 40° SE
Cosmos 2195 Rocket 4.4 18:27:17 10° N 18:33:39 84° E 18:40:00 10° S
Cosmos 1536 Rocket 4.3 18:29:54 10° NNW 18:34:14 52° W 18:38:30 10° S
Okean 2 Rocket 3.1 18:32:20 10° SSW 18:36:44 75° WNW 18:37:52 48° N
Cosmos 1190 Rocket 4.2 18:34:48 10° SSW 18:40:05 71° WNW 18:42:26 34° NNE
Cosmos 2344 3.8 18:34:28 10° NW 18:42:18 82° NE 18:47:32 32° SE
Cosmos 676 Rocket 3.8 18:37:39 10° SSW 18:42:57 80° ESE 18:43:15 77° ENE
Resurs 01 Rocket 3.1 18:46:22 27° N 18:46:22 27° N 18:48:26 10° N
Meteor 2-3 Rocket 3.6 18:39:49 10° NNW 18:45:34 86° W 18:49:59 17° S
Cosmos 2297 Rocket 4.4 18:47:02 10° N 18:48:17 12° N 18:48:17 12° N
ISS -1.5 18:48:31 10° W 18:50:07 26° W 18:50:07 26° W
Cosmos 1954 Rocket 4.2 18:47:48 10° SSW 18:53:03 68° WNW 18:54:18 50° N
COSMO-SKYMED 1 3.4 18:57:48 44° WNW 18:57:58 45° WNW 19:01:53 10° SW
USA 281 3.0 19:02:00 72° ESE 19:02:34 77° ENE 19:09:09 10° NNW
Cosmos 1943 Rocket 4.0 19:29:19 10° W 19:33:53 25° NW 19:35:40 21° NNW
Cosmos 2278 Rocket 4.1 19:38:37 10° W 19:43:08 24° NW 19:44:37 21° NNW
SJ 16-02 4.1 19:50:50 10° W 19:52:17 16° W 19:52:17 16° W
CZ-4C R/B 4.3 20:05:01 10° NW 20:07:32 21° NNW 20:07:32 21° NNW
ATLAS 2AS CENTAUR R/B 3.7 20:08:36 10° NW 20:13:01 40° WNW 20:13:01 40° WNW
